Location: Feydey
(46.3431°N, 7.0106°E)
Time: 05:32:01
(UTC+00:00)

Meteor 2-1 Rocket - Pass Details

Date: 20 June 2021
Orbit: 828 x 908 km, 81.3° (Epoch: 28 July)

Event Time Altitude Azimuth Distance (km) Brightness Sun altitude
Rises 22:11:34 0° 351° (N) 3,384 8.9 -17.8°
Reaches altitude 10° 22:14:00 10° 354° (N) 2,449 7.8 -17.9°
Maximum altitude 22:19:30 66° 77° (ENE) 915 4.3 -18.2°
Enters shadow 22:22:07 32° 150° (SSE) 1,421 4.8 -18.4°
